Regional Weather Roundup
Issued by NWS

Home | Current Version | Previous Version | Text Only | Print | Product List | Glossary Off
Versions: 1 2 3 4 5 6 7 8 9 10 11 12 13 14 15 16 17 18 19 20 21 22 23 24 25 26 27 28 29 30 31 32 33 34 35 36 37 38 39 40 41 42 43 44 45 46 47 48 49 50

269
ASUS45 KABQ 231910
RWRNM
NEW MEXICO REGIONAL WEATHER ROUNDUP
NATIONAL WEATHER SERVICE ALBUQUERQUE NM
100 PM MDT WED AUG 23 2017

NOTE: "FAIR" MEANS FEW OR NO CLOUDS BELOW 12,000 FEET AGL WITH NO
       SIGNIFICANT WEATHER OR OBSTRUCTIONS TO VISION.

      THIS PRODUCT IS RELEASED AS TWO VERSIONS.  ONE VERSION NEAR
      THE TOP OF THE HOUR CONTAINING PRELIMINARY DATA FROM ALBUQUERQUE
      AND OTHER STATIONS.  A FINAL VERSION WITH ADDITIONAL DATA IS
      ISSUED ABOUT 10 MINUTES AFTER THE HOUR.

NMZ501-503-504-510>518-232000-
NORTHWEST PLATEAU/NORTHCENTRAL MOUNTAINS

CITY           SKY/WX    TMP DP  RH WIND       PRES   REMARKS
FARMINGTON     FAIR      83  50  31 VRB7      30.22F
LOS ALAMOS     LGT RAIN  65  57  76 W14       30.40R
SANTA FE       FAIR      80  53  39 VRB7      30.29F
TAOS           FAIR      73  50  44 CALM      30.37F
ANGEL FIRE     FAIR      69  45  41 W17       30.43F

$$
NMZ402-403-502-505>509-232000-
WESTCENTRAL MOUNTAINS/SOUTHWEST MOUNTAINS

CITY           SKY/WX    TMP DP  RH WIND       PRES   REMARKS
GALLUP         FAIR      80  44  27 S7        30.28F THUNDER
GRANTS         PTSUNNY   80  42  25 NW16G22   30.32F
SILVER CITY    FAIR      84  58  41 E6        30.23F

$$
NMZ407-409-411-412-232000-
SOUTHERN DESERTS

CITY           SKY/WX    TMP DP  RH WIND       PRES   REMARKS
DEMING         FAIR      87  62  43 VRB7      30.15F
LAS CRUCES     FAIR      85  61  43 CALM      30.18F
HOLLOMAN AFB   FAIR      91  59  33 SE3       30.15F
ALAMOGORDO     FAIR      86  59  39 SW6       30.15F
T OR C         FAIR      85  58  39 CALM      30.18F

$$
NMZ519>523-232000-
CENTRAL VALLEYS/CENTRAL HIGHLANDS

CITY           SKY/WX    TMP DP  RH WIND       PRES   REMARKS
ALBUQUERQUE    PTSUNNY   80  57  45 VRB3      30.24F
DOUBLE EAGLE   PTSUNNY   79  59  50 VRB5        N/A
MORIARTY ARPT  FAIR      80  59  48 CALM      30.31F
CLINES CORNERS FAIR      78  51  38 MISG      30.35F
BELEN          FAIR      81  57  44 E5        30.23F
SOCORRO        FAIR      84  52  33 NE5       30.19F

$$
NMZ524>526-539-540-232000-
SOUTHCENTRAL MOUNTAINS

CITY           SKY/WX    TMP DP  RH WIND       PRES   REMARKS
RUIDOSO        FAIR      73  57  56 SE9       30.35F

$$
NMZ527>531-232000-
NORTHEAST HIGHLANDS/NORTHEAST PLAINS

CITY           SKY/WX    TMP DP  RH WIND       PRES   REMARKS
LAS VEGAS      FAIR      73  56  54 S8        30.33F
RATON          FAIR      72  57  59 S9        30.28F
CLAYTON        PTSUNNY   74  62  66 S9        30.23F

$$
NMZ532>537-232000-
EASTCENTRAL PLAINS

CITY           SKY/WX    TMP DP  RH WIND       PRES   REMARKS
SANTA ROSA     FAIR      78  59  51 CALM      30.21F
TUCUMCARI      FAIR      82  64  54 MISG      30.17F
CANNON AFB     PTSUNNY   77  68  73 E10       30.21F
CLOVIS AIRPORT PTSUNNY   77  66  68 VRB6      30.22F

$$
NMZ028-029-538-232000-
SOUTHEAST PLAINS

CITY           SKY/WX    TMP DP  RH WIND       PRES   REMARKS
ROSWELL        FAIR      83  62  49 VRB6      30.15F
ARTESIA        PTSUNNY   82  64  54 NE7       30.14F
CARLSBAD       FAIR      83  66  56 NE5       30.12F
HOBBS          PTSUNNY   82  63  51 NE6       30.16F


$$




USA.gov is the U.S. government's official web portal to all federal, state and local government web resources and services.